Terminal Aerodrome Forecast
Issued by NWS

Home | Current Version | Previous Version | Graphics & Text | Print | Product List | Glossary On
Versions: 1 2 3 4 5 6 7 8 9 10 11 12 13 14 15 16 17 18 19
000
FTUS43 KABR 242300
TAFPIR
TAF
KPIR 242338Z 2500/2524 31018G25KT P6SM SKC
     FM250200 VRB06KT P6SM FEW150
     FM251500 26007KT P6SM SCT120=

USA.gov is the U.S. government's official web portal to all federal, state and local government web resources and services.